Regional Weather Roundup
Issued by NWS

Home | Current Version | Previous Version | Text Only | Print | Product List | Glossary Off
Versions: 1 2 3 4 5 6 7 8 9 10 11 12 13 14 15 16 17 18 19 20 21 22 23 24 25 26 27 28 29 30 31 32 33 34 35 36 37 38 39 40 41 42 43 44 45 46 47 48 49 50

413
ASUS43 KDTX 022310
RWRMI
MICHIGAN HOURLY REGIONAL WEATHER ROUNDUP
NATIONAL WEATHER SERVICE DETROIT/PONTIAC MI
700 PM EDT MON MAY 02 2016

NOTE: "FAIR" INDICATES FEW OR NO CLOUDS BELOW 12,000 FEET WITH NO
SIGNIFICANT WEATHER AND/OR OBSTRUCTION TO VISIBILITY.

MIZ047>049-052>055-059>063-066>070-074>076-081>083-030000-
SOUTHEAST LOWER MICHIGAN

CITY           SKY/WX    TMP DP  RH WIND       PRES   REMARKS
ADRIAN         CLOUDY    52  46  80 NE7       29.99F
ALMA           SUNNY     56  36  46 NE7       30.01F
ANN ARBOR      CLOUDY    53  43  68 N5        29.98F
BAD AXE        SUNNY     56  31  39 NE6       30.01S
CARO           SUNNY     57  34  41 NE5       29.99F
DETROIT CITY   CLOUDY    54  42  64 N3        29.98F
DETROIT        CLOUDY    53  43  68 N5        29.99F
FLINT          PTSUNNY   57  41  55 CALM      29.99F
GROSSE ILE     MOSUNNY   55  45  67 NE7       29.97F
HILLSDALE      CLOUDY    50  44  81 NE8       29.98F
HOWELL         CLOUDY    54  42  63 CALM      29.99F

CITY           SKY/WX    TMP DP  RH WIND       PRES   REMARKS
JACKSON        CLOUDY    52  44  74 N8        29.99F
LAMBERTVILLE   CLOUDY    53  46  77 E3        29.99S
LANSING        CLOUDY    54  41  61 SE6       30.01S
LAPEER         FAIR      56  36  46 NE7       29.99F
MASON          CLOUDY    51  44  75 N3        30.00S
MONROE         CLOUDY    52  45  77 N5        29.98F
MT. CLEMENS    CLOUDY    54  44  68 E1        29.98F HAZE
PONTIAC        CLOUDY    54  41  61 W5        29.98F
PORT HOPE        N/A     49  39  68 CALM      30.01F
PORT HURON     SUNNY     50  37  62 NE10      30.00F
TRI CITIES     MOSUNNY   59  33  37 E7        30.01F
MIDLAND        FAIR      58  29  34 E7        30.01S
TROY           CLOUDY    55  43  62 NE3       30.00F
SAGINAW HB     SUNNY     57  34  41 N9        30.00F
$$
MIZ043>046-050>051-056>058-064>065-071>073-077>080-030000-
SOUTHWEST LOWER MICHIGAN

CITY           SKY/WX    TMP DP  RH WIND       PRES   REMARKS
BATTLE CREEK   CLOUDY    52  43  71 NE7       30.00F
BENTON HARBOR  CLOUDY    50  36  58 N3        30.01F
BIG RAPIDS     CLOUDY    58  31  35 SE5       29.99S
COLDWATER      CLOUDY    50  47  90 NE6       29.99F
FREMONT        CLOUDY    59  34  39 SE6       29.99S
HOLLAND        MOSUNNY   56  41  57 W6        30.01F
GRAND RAPIDS   PTSUNNY   56  42  59 E6        30.01S
IONIA          CLOUDY    53  41  64 CALM      30.01S
KALAMAZOO      CLOUDY    54  42  64 NE3       30.01S
LUDINGTON      SUNNY     58  32  37 N12G20    30.01S
MARSHALL       CLOUDY    51  45  77 NE3       29.99F
MOUNT PLEASANT MOSUNNY   59  29  31 SE5       30.00S
MUSKEGON       PTSUNNY   52  40  63 SW7       30.00F
SOUTH HAVEN    CLOUDY    50  38  64 N5        30.01F
$$
MIZ016>042-030000-
NORTHERN LOWER MICHIGAN

CITY           SKY/WX    TMP DP  RH WIND       PRES   REMARKS
ALPENA         SUNNY     60  28  29 S7        29.99F
BEAVER ISLAND  CLOUDY    57  34  40 W6        30.02S
BELLAIRE       SUNNY     62  28  27 NW6       30.00S
CADILLAC       CLOUDY    58  29  32 CALM      29.98S
CHARLEVOIX     SUNNY     55  35  46 W7        30.04S
FRANKFORT      SUNNY     58  35  42 N7        30.01S
GAYLORD        CLOUDY    60  27  28 NE5       29.99S
GRAYLING       CLOUDY    59  30  33 CALM      30.00S
HARBOR SPRINGS SUNNY     44  37  76 SW6       30.00F
HOUGHTON LAKE  CLOUDY    58  30  34 S5        29.99F
MANISTEE       SUNNY     57  32  38 NW12      30.01F
OSCODA         SUNNY     55  31  39 E5        30.01S
PELLSTON       MOSUNNY   62  30  29 NW12      30.00S
ROGERS CITY    SUNNY     58  26  28 N3        30.01S
TRAVERSE CITY  MOSUNNY   59  31  34 NE6       29.99F
$$
MIZ007>008-015-030000-
EASTERN UPPER MICHIGAN

CITY           SKY/WX    TMP DP  RH WIND       PRES   REMARKS
KINROSS          N/A     57  30  35 NW12      29.99S
MACKINAC ISLAN CLOUDY    54  34  47 W5        30.00S
NEWBERRY       SUNNY     56  33  41 N7        30.00S
S. S. MARIE    SUNNY     55  32  41 W9        30.00S
MUNISING         N/A     45  36  70 CALM      30.02F
$$
MIZ004>006-011>014-085-030000-
CENTRAL UPPER MICHIGAN

CITY           SKY/WX    TMP DP  RH WIND       PRES   REMARKS
MANISTIQUE     PTSUNNY   56  32  40 SW7       30.01S
ESCANABA       SUNNY     57  32  38 S9        30.01S
MENOMINEE      SUNNY     61  34  36 S10       30.00F
SAWYER-GWINN   SUNNY     55  32  41 N12       30.03F
$$
MIZ001>003-009>011-084-030000-
WESTERN UPPER MICHIGAN

CITY           SKY/WX    TMP DP  RH WIND       PRES   REMARKS
IRON MOUNTAIN  CLOUDY    63  25  23 CALM      29.97S
HOUGHTON       SUNNY     58  29  33 NW3       30.01F
COPPER HARBOR    N/A     50  35  56 CALM      30.01F
IRONWOOD         N/A     59  27  29 NW7       29.99S
$$

ABBREVIATIONS USED IN REMARKS
   TC - TEMPERATURE IN CELSIUS
  WCI - WIND CHILL INDEX
   HX - HEAT INDEX
  VSB - VISIBILITY





USA.gov is the U.S. government's official web portal to all federal, state and local government web resources and services.